This demonstration page uses our WeatherBlox Daily Observations layout. Learn more.

Left ArrowRight Arrow

53.62937, 11.41316

Hourly Observations for March 27, 2018

Temp ( °F °C ) Dew Point ( °F °C ) Humidity (%) Winds ( mph kmh ) Pressure ( in mb ) Visibility ( mi km ) Precip ( " mm )
6:50 am 06:50 Cloudy with Mist and Fog 34 1 34 1 100 100 VRB 2 4 30.00 1016 1 2 N/A
7:20 am 07:20 Cloudy with Mist and Fog 34 1 34 1 100 100 VRB 2 4 30.00 1016 1 1 N/A
7:50 am 07:50 Cloudy with Mist and Fog 34 1 34 1 100 100 VRB 2 4 29.97 1015 1 1 N/A
8:20 am 08:20 Cloudy with Mist and Fog 34 1 34 1 100 100 VRB 1 2 29.97 1015 2 3 N/A
8:50 am 08:50 Cloudy with Mist and Fog 34 1 34 1 100 100 VRB 2 4 30.00 1016 2 3 N/A
9:20 am 09:20 Cloudy with Mist and Fog 36 2 36 2 100 100 VRB 2 4 29.97 1015 2 4 N/A
9:50 am 09:50 Mostly Cloudy 37 3 37 3 100 100 VRB 2 4 29.97 1015 4 6 N/A
10:20 am 10:20 Mostly Cloudy 37 3 37 3 100 100 S 3 6 29.97 1015 3 5 N/A
10:50 am 10:50 Mostly Cloudy with Mist and Fog 37 3 37 3 100 100 SSE 5 7 29.97 1015 3 5 N/A
11:20 am 11:20 Mostly Cloudy with Mist and Fog 39 4 37 3 93 93 SSE 3 6 29.97 1015 3 4 N/A
11:50 am 11:50 Mostly Cloudy with Mist and Fog 39 4 39 4 100 100 SSE 2 4 29.97 1015 3 4 N/A
12:20 pm 12:20 Mostly Cloudy 39 4 39 4 100 100 VRB 2 4 29.97 1015 2 4 N/A
12:50 pm 12:50 Mostly Cloudy 41 5 39 4 93 93 ESE 3 6 29.97 1015 4 6 N/A
1:20 pm 13:20 Mostly Cloudy 43 6 39 4 87 87 SSE 3 6 29.94 1014 4 6 N/A
1:50 pm 13:50 Mostly Cloudy 45 7 37 3 76 76 ESE 3 6 29.94 1014 30 48 N/A
2:20 pm 14:20 Mostly Cloudy 45 7 37 3 76 76 ESE 5 7 29.94 1014 30 48 N/A
2:50 pm 14:50 Mostly Cloudy 45 7 36 2 71 71 SE 5 7 29.91 1013 30 48 N/A
3:20 pm 15:20 Mostly Cloudy 45 7 36 2 71 71 SE 6 9 29.91 1013 30 48 N/A
3:50 pm 15:50 Mostly Cloudy 45 7 34 1 66 66 ESE 6 9 29.91 1013 30 48 N/A
4:20 pm 16:20 Mostly Sunny 45 7 32 0 61 61 ESE 5 7 29.88 1012 7 11 N/A
4:50 pm 16:50 Mostly Sunny 45 7 32 0 61 61 E 5 7 29.88 1012 7 11 N/A
5:20 pm 17:20 Mostly Sunny 45 7 32 0 61 61 E 6 9 29.88 1012 7 11 N/A
5:50 pm 17:50 Mostly Sunny 45 7 34 1 66 66 E 7 11 29.88 1012 7 11 N/A
6:20 pm 18:20 Mostly Sunny 45 7 34 1 66 66 N N/A 29.85 1011 7 11 N/A

Powered by AerisWeather